[[{"header":{"parameterUnit":"m.s-1","parameterCategory":2,"la1":30.2991,"la2":30.254,"lo1":-89.0895,"lo2":-89.0444,"dy":0.0017,"dx":0.0017,"nx":28,"ny":28,"refTime":"2025-04-30T09:00:00:Z","depth":"0","parameterNumber":2,"parameterNumberName":"U-component_of_CURRENTS"},"data":[0,0,0,0,0,0,0,0,0,0,0,0,0,0,0,0,0,0,0,0,0,0,0,0,0,0,0,0,0,0,0,0,0,0,0,0,0,0,0,0,0,0,0,0,0,0,0,0,0,0,0,0,0,0,0,0,0,0,-0.3224,-0.3226,0,-0.336,-0.3361,-0.3362,-0.3332,-0.333,-0.3328,-0.3326,-0.3299,-0.3301,-0.3302,0,0,0,0,0,0,0,0,0,0,0,0,0,-0.2915,-0.292,-0.3224,-0.3226,-0.3228,-0.336,-0.3361,-0.3363,-0.3333,-0.333,-0.3327,-0.3325,-0.3299,-0.33,-0.3302,0,0,0,0,0,0,0,0,0,0,0,0,0,-0.3047,-0.2922,-0.3224,-0.3231,-0.3233,-0.3359,-0.3361,-0.3363,-0.3333,-0.333,-0.3327,-0.3323,-0.3298,-0.33,-0.3302,-0.3384,0,0,-0.3309,-0.331,0,0,0,0,0,0,0,0,-0.3039,-0.3058,-0.3228,-0.3231,-0.3234,-0.3328,-0.3243,-0.3363,-0.3334,-0.3292,-0.3326,-0.3322,-0.3298,-0.33,-0.3332,-0.3383,-0.3381,-0.3309,-0.331,-0.3311,-0.3312,0,0,0,0,0,0,0,-0.303,-0.3052,-0.3275,-0.3231,-0.3234,-0.322,-0.3234,-0.3266,-0.3307,-0.3296,-0.3295,-0.3316,-0.3298,-0.333,-0.333,-0.3381,-0.3309,-0.3311,-0.3312,-0.3313,-0.3475,-0.3478,0,0,0,0,0,0,-0.3026,-0.3044,-0.3271,-0.3279,-0.3129,-0.3228,-0.3245,-0.3299,-0.3311,-0.3312,-0.3318,-0.3314,-0.3328,-0.3328,-0.3329,-0.3355,-0.3311,-0.3313,-0.3314,-0.3472,-0.3475,-0.3479,0,0,0,0,0,0,-0.302,-0.3047,-0.3265,-0.3164,-0.3191,-0.3238,-0.3299,-0.3304,-0.3324,-0.333,-0.3326,-0.3332,-0.3325,-0.3326,-0.3366,-0.3355,-0.3314,-0.3316,-0.3468,-0.3473,-0.3477,-0.3452,0,0,0,0,0,0,-0.3011,-0.3044,-0.3088,-0.3166,-0.3197,-0.3343,-0.3302,-0.3309,-0.3344,-0.3339,-0.3341,-0.3336,-0.3322,-0.3364,-0.3368,-0.3358,-0.3318,-0.3464,-0.347,-0.3476,-0.3449,-0.3455,-0.346,0,0,0,0,0,-0.3,-0.3085,-0.309,-0.3117,-0.3255,-0.3346,-0.3361,-0.3378,-0.3348,-0.3378,-0.3379,-0.3335,-0.3402,-0.3369,-0.3373,-0.3362,-0.3462,-0.3469,-0.3475,-0.3446,-0.3454,-0.346,0,0,0,0,0,0,-0.2978,-0.3093,-0.3099,-0.3215,-0.3271,-0.3341,-0.3383,-0.3386,-0.3417,-0.3404,-0.3383,-0.3382,-0.3416,-0.342,-0.3383,-0.3436,-0.3422,-0.343,-0.3399,-0.3406,-0.3411,-0.3372,-0.3319,0,0,0,0,0,-0.2996,-0.3089,-0.3167,-0.3259,-0.3285,-0.3329,-0.3368,-0.3382,-0.342,-0.343,-0.3428,-0.3437,-0.3459,-0.3452,-0.3489,-0.3517,-0.3492,-0.3519,-0.3524,-0.3528,-0.3507,-0.3464,-0.3461,-0.3501,-0.3501,-0.3501,0,0,-0.3019,-0.309,-0.3145,-0.3259,-0.33,-0.337,-0.3343,-0.3414,-0.3452,-0.3424,-0.3467,-0.347,-0.3483,-0.3515,-0.3527,-0.35,-0.3517,-0.3537,-0.3539,-0.3516,-0.347,-0.3465,-0.346,-0.3506,-0.3505,-0.3504,0,0,-0.3109,-0.3163,-0.3261,-0.3313,-0.3388,-0.3411,-0.3427,-0.3492,-0.3491,-0.3554,-0.353,-0.3518,-0.3581,-0.355,-0.355,-0.3617,-0.3567,-0.3642,-0.3604,-0.3562,-0.3556,-0.355,-0.3546,-0.354,-0.3619,-0.3619,-0.3619,0,-0.3122,-0.325,-0.3299,-0.339,-0.3414,-0.3426,-0.3489,-0.3525,-0.3589,-0.3555,-0.3569,-0.3581,-0.3588,-0.3559,-0.3583,-0.3616,-0.3605,-0.3561,-0.356,-0.3553,-0.3547,-0.3544,-0.3537,-0.3618,-0.3618,-0.3619,-0.3619,0,-0.3271,-0.3361,-0.3415,-0.352,-0.3554,-0.3615,-0.3644,-0.3653,-0.3638,-0.3635,-0.3614,-0.3625,-0.3598,-0.3612,-0.3619,-0.3575,-0.3589,-0.3581,-0.3517,-0.354,-0.3539,-0.3532,-0.3618,-0.3618,-0.3618,-0.3618,0,0,-0.3305,-0.3484,-0.3493,-0.3517,-0.3607,-0.3629,-0.3675,-0.3668,-0.3631,-0.3666,-0.3611,-0.3632,-0.3577,-0.3577,-0.356,-0.3519,-0.3486,-0.3529,-0.3527,-0.3482,-0.342,-0.3334,-0.3319,-0.3468,-0.3466,-0.3464,-0.3445,0,-0.3379,-0.3541,-0.3601,-0.368,-0.3733,-0.3717,-0.3734,-0.3719,-0.3694,-0.3657,-0.3603,-0.3585,-0.3585,-0.3554,-0.3512,-0.3511,-0.3463,-0.3494,-0.3443,-0.3442,-0.3324,-0.3305,-0.3148,-0.3107,-0.3438,-0.3437,-0.3436,0,-0.3478,-0.3557,-0.3669,-0.3691,-0.3698,-0.3734,-0.365,-0.3675,-0.3623,-0.3595,-0.3537,-0.3523,-0.3475,-0.3482,-0.3426,-0.3449,-0.3426,-0.3415,-0.3414,-0.3324,-0.334,-0.3138,-0.3082,-0.3061,-0.3425,-0.3426,-0.3427,0,-0.3433,-0.3566,-0.3626,-0.3656,-0.3718,-0.3692,-0.3677,-0.3632,-0.3588,-0.355,-0.352,-0.3464,-0.345,-0.3407,-0.3401,-0.3411,-0.3349,-0.3357,-0.325,-0.3247,-0.3095,-0.3079,-0.2961,-0.3282,-0.3282,-0.3282,-0.3282,0,-0.3474,-0.3503,-0.3603,-0.3639,-0.3585,-0.3647,-0.3561,-0.354,-0.3514,-0.3451,-0.3473,-0.3432,-0.3429,-0.3404,-0.3385,-0.3298,-0.3329,-0.3224,-0.3213,-0.3092,-0.3076,-0.3037,-0.308,-0.3282,-0.3282,-0.3282,-0.3282,0,-0.3413,-0.3532,-0.355,-0.3595,-0.3588,-0.3526,-0.3476,-0.3406,-0.344,-0.3377,-0.3372,-0.3401,-0.3372,-0.3361,-0.3315,-0.3268,-0.3141,-0.3159,-0.3037,-0.3009,-0.2862,-0.2911,-0.2801,-0.2727,-0.3023,-0.302,-0.3018,0,-0.3393,-0.3434,-0.3453,-0.341,-0.3422,-0.336,-0.3296,-0.3329,-0.3289,-0.3341,-0.3308,-0.3317,-0.3253,-0.3182,-0.3094,-0.3008,-0.3032,-0.2843,-0.2802,-0.2801,-0.285,-0.2899,-0.2849,-0.2626,-0.262,-0.2616,-0.2613,0,-0.3275,-0.3293,-0.3287,-0.3219,-0.3163,-0.3079,-0.3044,-0.3029,-0.3086,-0.3091,-0.3108,-0.3087,-0.3039,-0.2882,-0.28,-0.2735,-0.2762,-0.2749,-0.2755,-0.2516,-0.2552,-0.2493,-0.2746,-0.2574,-0.2578,-0.2581,-0.2583,-0.2585,-0.3096,-0.3048,-0.3045,-0.2947,-0.2875,-0.2792,-0.2683,-0.273,-0.2693,-0.271,-0.2839,-0.2779,-0.2731,-0.2564,-0.2504,-0.2355,-0.2457,-0.2295,-0.2358,-0.2412,-0.2304,-0.2486,-0.2295,-0.2297,-0.2299,-0.2301,-0.2302,0,-0.2841,-0.2843,-0.2757,-0.2647,-0.248,-0.2535,-0.2475,-0.2384,-0.2334,-0.2436,-0.2437,-0.239,-0.2244,-0.2226,-0.2097,-0.2004,-0.1967,-0.1989,-0.2016,-0.1984,-0.2122,-0.2064,-0.1802,-0.1802,-0.1802,-0.1803,-0.1803,-0.1803,-0.2706,-0.2598,-0.2593,-0.2296,-0.2197,-0.196,-0.1903,-0.1859,-0.1881,-0.1853,-0.1881,-0.1951,-0.1977,-0.2112,-0.1975,-0.1876,-0.1859,-0.1793,-0.1871,-0.198,-0.2014,-0.2047,-0.1998,-0.1727,-0.1727,-0.1626,-0.1626,-0.1626]},{"header":{"parameterUnit":"m.s-1","parameterCategory":2,"la1":30.2991,"la2":30.254,"lo1":-89.0895,"lo2":-89.0444,"dy":0.0017,"dx":0.0017,"nx":28,"ny":28,"refTime":"2025-04-30T09:00:00:Z","depth":"0","parameterNumber":3,"parameterNumberName":"V-component_of_CURRENTS"},"data":[0,0,0,0,0,0,0,0,0,0,0,0,0,0,0,0,0,0,0,0,0,0,0,0,0,0,0,0,0,0,0,0,0,0,0,0,0,0,0,0,0,0,0,0,0,0,0,0,0,0,0,0,0,0,0,0,0,0,0.0025,0.0026,0,0.0201,0.0203,0.0206,0.0334,0.0334,0.0335,0.0335,0.0548,0.0553,0.0558,0,0,0,0,0,0,0,0,0,0,0,0,0,-0.009,-0.0088,0.0025,0.0027,0.0028,0.0201,0.0204,0.0207,0.0333,0.0334,0.0335,0.0335,0.0546,0.0552,0.0558,0,0,0,0,0,0,0,0,0,0,0,0,0,0.0015,-0.0088,0.0025,0.0108,0.0117,0.02,0.0204,0.0207,0.0333,0.0334,0.0335,0.0336,0.0544,0.0551,0.0559,0.0589,0,0,0.0582,0.0586,0,0,0,0,0,0,0,0,0.0009,0.002,0.0094,0.0103,0.0113,0.0241,0.0241,0.0335,0.0333,0.0257,0.0335,0.0336,0.0444,0.046,0.0499,0.0599,0.0608,0.0583,0.0588,0.0591,0.0593,0,0,0,0,0,0,0,0.0002,0.0014,0.01,0.0096,0.0107,0.0175,0.0191,0.026,0.0348,0.0264,0.0272,0.0283,0.0451,0.0491,0.0505,0.0611,0.0583,0.059,0.0594,0.0597,0.075,0.075,0,0,0,0,0,0,-0.0038,0.0006,0.0094,0.0105,0.0056,0.0176,0.0193,0.0204,0.0347,0.0368,0.0282,0.0288,0.0477,0.0496,0.0513,0.0529,0.0591,0.0598,0.0603,0.0751,0.075,0.075,0,0,0,0,0,0,-0.0041,-0.0032,0.0087,0.0056,0.0075,0.0175,0.0187,0.0207,0.0243,0.036,0.0383,0.0296,0.0479,0.0502,0.0574,0.0539,0.0602,0.0609,0.0751,0.0751,0.075,0.058,0,0,0,0,0,0,-0.0045,-0.0034,-0.0036,0.0052,0.0075,0.0114,0.0186,0.0209,0.0246,0.0256,0.0379,0.0401,0.0481,0.0561,0.0581,0.0551,0.0615,0.0752,0.0751,0.075,0.0586,0.0574,0.0563,0,0,0,0,0,-0.005,-0.0065,-0.0037,-0.0026,0.0067,0.0113,0.013,0.021,0.0245,0.0248,0.0343,0.0397,0.0569,0.0568,0.0591,0.0562,0.0753,0.0751,0.075,0.0592,0.0576,0.0563,0,0,0,0,0,0,-0.0109,-0.0051,-0.0019,-0.0013,0.0035,0.0132,0.0142,0.0194,0.0273,0.0284,0.0399,0.0427,0.0477,0.0546,0.0542,0.0605,0.0666,0.0669,0.0537,0.0524,0.0512,0.0493,0.0621,0,0,0,0,0,-0.0129,-0.0126,-0.0058,-0.0053,-0.0039,0.0048,0.0078,0.0127,0.0204,0.024,0.0326,0.0417,0.0491,0.0527,0.0607,0.064,0.0714,0.0636,0.0624,0.0613,0.0616,0.0685,0.0679,0.0746,0.0746,0.0746,0,0,-0.0147,-0.0118,-0.0112,-0.0067,-0.002,-0.0011,0.0069,0.0097,0.0117,0.0249,0.0301,0.0382,0.0494,0.0537,0.0563,0.0588,0.0634,0.0612,0.0601,0.061,0.0683,0.0677,0.0671,0.0745,0.0745,0.0745,0,0,-0.0208,-0.0165,-0.0194,-0.0161,-0.0116,-0.0061,-0.0065,0.0016,0.0063,0.0119,0.0217,0.0277,0.0391,0.0458,0.0509,0.048,0.0573,0.0496,0.0415,0.048,0.0475,0.0471,0.0551,0.0556,0.0482,0.0482,0.0482,0,-0.0235,-0.0256,-0.0194,-0.0213,-0.0192,-0.0098,-0.0118,-0.0057,0.0041,0.0075,0.0111,0.0274,0.0354,0.0415,0.0402,0.0449,0.0511,0.0452,0.0462,0.046,0.0459,0.0542,0.0549,0.0474,0.0475,0.0476,0.0476,0,-0.032,-0.0327,-0.0342,-0.033,-0.03,-0.0301,-0.0221,-0.0183,-0.0119,-0.0051,0.0023,0.0138,0.0235,0.0254,0.0321,0.0347,0.0401,0.0439,0.0488,0.0442,0.0533,0.0543,0.0462,0.0465,0.0467,0.0469,0,0,-0.0401,-0.0405,-0.0409,-0.0417,-0.0361,-0.0345,-0.0317,-0.0262,-0.0233,-0.0146,-0.0104,0.0,0.0067,0.0129,0.0212,0.0258,0.0295,0.0329,0.0337,0.0391,0.0452,0.0517,0.0536,0.0328,0.0329,0.033,0.0515,0,-0.0486,-0.0562,-0.0523,-0.0556,-0.0581,-0.048,-0.0454,-0.0383,-0.0303,-0.0234,-0.0124,-0.0046,0.0019,0.0062,0.0114,0.0265,0.0317,0.0243,0.0506,0.0515,0.0563,0.0548,0.0581,0.0751,0.0526,0.0528,0.053,0,-0.0589,-0.0619,-0.0696,-0.0667,-0.0664,-0.0658,-0.0587,-0.0547,-0.0426,-0.036,-0.0274,-0.0162,-0.0064,-0.0007,0.02,0.0149,0.0282,0.0389,0.04,0.053,0.0599,0.0766,0.078,0.0967,0.0548,0.0546,0.0545,0,-0.0703,-0.0728,-0.0795,-0.0789,-0.075,-0.0744,-0.0701,-0.0598,-0.0551,-0.0436,-0.0386,-0.0246,-0.0155,0.0004,0.0234,0.0217,0.0474,0.0487,0.0672,0.068,0.0798,0.0814,0.1012,0.0625,0.0624,0.0624,0.0623,0,-0.0821,-0.086,-0.0854,-0.0889,-0.0919,-0.0844,-0.0835,-0.0768,-0.0662,-0.0606,-0.0462,-0.0376,-0.015,0.0035,0.0219,0.0492,0.0472,0.0668,0.073,0.0741,0.0748,0.0991,0.1058,0.0631,0.0629,0.0628,0.0627,0,-0.0947,-0.0955,-0.1016,-0.1,-0.0988,-0.1008,-0.0924,-0.0896,-0.0793,-0.0714,-0.0678,-0.046,-0.0213,0.0036,0.0332,0.049,0.0861,0.0835,0.084,0.0898,0.1212,0.1268,0.1544,0.1661,0.1054,0.1057,0.1059,0,-0.1021,-0.1079,-0.1106,-0.1131,-0.113,-0.1122,-0.1097,-0.0986,-0.0937,-0.075,-0.0712,-0.0462,-0.0247,0.0215,0.0527,0.0873,0.1011,0.1103,0.1068,0.1245,0.1353,0.1385,0.1465,0.1166,0.1169,0.1171,0.1173,0,-0.1137,-0.1156,-0.1203,-0.126,-0.1267,-0.125,-0.1202,-0.1183,-0.1027,-0.0922,-0.072,-0.0532,-0.0082,0.0337,0.0776,0.0978,0.1236,0.1162,0.1351,0.1462,0.1508,0.1645,0.1037,0.1195,0.1192,0.1191,0.119,0.1189,-0.1193,-0.1261,-0.1317,-0.1361,-0.137,-0.1349,-0.1321,-0.123,-0.1125,-0.091,-0.0732,-0.037,0.018,0.0809,0.1037,0.15,0.1447,0.1636,0.1694,0.1714,0.1811,0.1251,0.1468,0.1467,0.1467,0.1466,0.1466,0,-0.1243,-0.1318,-0.1387,-0.143,-0.1436,-0.1413,-0.1352,-0.1267,-0.1123,-0.0868,-0.0615,0.007,0.0632,0.1136,0.1756,0.2017,0.206,0.2144,0.2198,0.2257,0.1782,0.177,0.2055,0.2055,0.2055,0.2055,0.2055,0.2055,-0.1265,-0.1372,-0.1417,-0.1457,-0.1466,-0.1409,-0.1365,-0.1222,-0.1013,-0.0559,-0.0131,0.0217,0.0912,0.186,0.2443,0.25,0.272,0.2696,0.2824,0.2487,0.2443,0.2402,0.2408,0.2823,0.2824,0.3279,0.3284,0.3287]}],[{"header":{"parameterUnit":"m.s-1","parameterCategory":2,"la1":30.2991,"la2":30.254,"lo1":-89.0895,"lo2":-89.0444,"dy":0.0017,"dx":0.0017,"nx":28,"ny":28,"refTime":"2025-04-30T09:00:00:Z","depth":"2","parameterNumber":2,"parameterNumberName":"U-component_of_CURRENTS"},"data":[0,0,0,0,0,0,0,0,0,0,0,0,0,0,0,0,0,0,0,0,0,0,0,0,0,0,0,0,0,0,0,0,0,0,0,0,0,0,0,0,0,0,0,0,0,0,0,0,0,0,0,0,0,0,0,0,0,0,-0.2557,-0.2558,0,-0.263,-0.2631,-0.2631,-0.261,-0.2609,-0.2608,-0.2607,-0.2624,-0.2625,-0.2626,0,0,0,0,0,0,0,0,0,0,0,0,0,-0.244,-0.2442,-0.2557,-0.2559,-0.256,-0.263,-0.2631,-0.2631,-0.261,-0.2609,-0.2608,-0.2606,-0.2623,-0.2625,-0.2626,0,0,0,0,0,0,0,0,0,0,0,0,0,-0.2495,-0.2442,-0.2557,-0.2562,-0.2563,-0.263,-0.2631,-0.2631,-0.261,-0.2609,-0.2607,-0.2606,-0.2623,-0.2625,-0.2627,-0.267,0,0,-0.2633,-0.2634,0,0,0,0,0,0,0,0,-0.2492,-0.2498,-0.256,-0.2562,-0.2564,-0.2614,-0.2596,-0.2643,-0.2611,-0.2587,-0.2607,-0.2605,-0.262,-0.2622,-0.2632,-0.2671,-0.2671,-0.2633,-0.2634,-0.2635,-0.2636,0,0,0,0,0,0,0,-0.2488,-0.2495,-0.2581,-0.2562,-0.2564,-0.2575,-0.258,-0.2605,-0.2606,-0.2589,-0.2589,-0.2606,-0.262,-0.263,-0.2632,-0.2672,-0.2633,-0.2635,-0.2636,-0.2637,-0.2775,-0.2777,0,0,0,0,0,0,-0.249,-0.2492,-0.2578,-0.2583,-0.2529,-0.2579,-0.2584,-0.2595,-0.2607,-0.2609,-0.2607,-0.2605,-0.2628,-0.263,-0.2633,-0.2701,-0.2635,-0.2637,-0.2638,-0.2773,-0.2776,-0.2778,0,0,0,0,0,0,-0.2487,-0.2496,-0.2575,-0.2544,-0.2555,-0.2582,-0.2595,-0.2597,-0.2612,-0.2622,-0.2622,-0.262,-0.2626,-0.263,-0.2676,-0.27,-0.2638,-0.264,-0.277,-0.2774,-0.2777,-0.2825,0,0,0,0,0,0,-0.2483,-0.2495,-0.2496,-0.2544,-0.2557,-0.2625,-0.2597,-0.26,-0.2628,-0.2625,-0.2634,-0.2633,-0.2626,-0.2674,-0.2678,-0.2702,-0.2642,-0.2767,-0.2772,-0.2776,-0.2821,-0.283,-0.2838,0,0,0,0,0,-0.2478,-0.249,-0.2496,-0.2507,-0.2561,-0.2627,-0.2635,-0.2645,-0.263,-0.2649,-0.2661,-0.2633,-0.2705,-0.2678,-0.2683,-0.2707,-0.2765,-0.277,-0.2775,-0.2817,-0.2828,-0.2838,0,0,0,0,0,0,-0.244,-0.2492,-0.2498,-0.2524,-0.2577,-0.2625,-0.2641,-0.2655,-0.2681,-0.2675,-0.267,-0.2673,-0.272,-0.2719,-0.2689,-0.2764,-0.2729,-0.2735,-0.2758,-0.2769,-0.2778,-0.2762,-0.2643,0,0,0,0,0,-0.2436,-0.245,-0.2516,-0.2534,-0.2564,-0.2605,-0.2629,-0.265,-0.2684,-0.2692,-0.2707,-0.2724,-0.275,-0.2762,-0.2786,-0.2832,-0.2807,-0.2852,-0.2861,-0.2868,-0.2862,-0.285,-0.2856,-0.2796,-0.2796,-0.2796,0,0,-0.2425,-0.2455,-0.2462,-0.2526,-0.256,-0.2627,-0.2614,-0.2666,-0.2716,-0.2693,-0.2752,-0.2759,-0.2772,-0.2821,-0.2841,-0.2819,-0.2878,-0.2875,-0.2881,-0.287,-0.2856,-0.2861,-0.2866,-0.28,-0.2799,-0.2799,0,0,-0.2439,-0.2442,-0.248,-0.2533,-0.2604,-0.2636,-0.2658,-0.2727,-0.2746,-0.2817,-0.2807,-0.2831,-0.2882,-0.2889,-0.2899,-0.2976,-0.2927,-0.2986,-0.3012,-0.3001,-0.3005,-0.3007,-0.2995,-0.2996,-0.2986,-0.2986,-0.2986,0,-0.2427,-0.2484,-0.2503,-0.2572,-0.2614,-0.2646,-0.2718,-0.2757,-0.2831,-0.2847,-0.2843,-0.2903,-0.2913,-0.2952,-0.2978,-0.2992,-0.2973,-0.2965,-0.3008,-0.301,-0.3012,-0.2999,-0.2999,-0.2989,-0.2989,-0.2988,-0.2988,0,-0.249,-0.2543,-0.2572,-0.2659,-0.2706,-0.2768,-0.2836,-0.2882,-0.2904,-0.293,-0.2977,-0.2993,-0.3014,-0.3031,-0.3029,-0.3055,-0.3034,-0.3019,-0.297,-0.302,-0.3004,-0.3004,-0.2993,-0.2992,-0.2991,-0.2991,0,0,-0.2445,-0.259,-0.2605,-0.2655,-0.2757,-0.2799,-0.2885,-0.2957,-0.2984,-0.3038,-0.3065,-0.3113,-0.3088,-0.3098,-0.3092,-0.3088,-0.3095,-0.306,-0.3058,-0.3028,-0.3065,-0.2971,-0.2961,-0.3078,-0.3078,-0.3078,-0.3051,0,-0.2493,-0.2626,-0.2689,-0.2796,-0.2858,-0.2916,-0.2981,-0.3039,-0.307,-0.3103,-0.3108,-0.3128,-0.3123,-0.3119,-0.312,-0.3103,-0.3095,-0.3104,-0.3038,-0.3036,-0.2929,-0.2958,-0.2724,-0.2672,-0.305,-0.305,-0.305,0,-0.253,-0.2613,-0.2732,-0.2847,-0.2879,-0.2949,-0.3017,-0.3079,-0.3129,-0.3147,-0.316,-0.3153,-0.3168,-0.3144,-0.3132,-0.3135,-0.3104,-0.3085,-0.3083,-0.2971,-0.294,-0.2684,-0.2657,-0.3049,-0.3049,-0.3049,-0.3049,0,-0.2452,-0.263,-0.271,-0.2757,-0.2898,-0.2953,-0.3019,-0.3083,-0.311,-0.3155,-0.3162,-0.3177,-0.3175,-0.3151,-0.3123,-0.3123,-0.3089,-0.3083,-0.2971,-0.2964,-0.2739,-0.2711,-0.3058,-0.3058,-0.3058,-0.3058,-0.3058,0,-0.2446,-0.2512,-0.2689,-0.2725,-0.2809,-0.2913,-0.2966,-0.3039,-0.3098,-0.3105,-0.3158,-0.3157,-0.3173,-0.3156,-0.3125,-0.3043,-0.3091,-0.297,-0.2946,-0.2753,-0.2728,-0.3032,-0.303,-0.3057,-0.3057,-0.3058,-0.3058,0,-0.2337,-0.2459,-0.2549,-0.2718,-0.2767,-0.2815,-0.2941,-0.2959,-0.3046,-0.306,-0.307,-0.3137,-0.3115,-0.3113,-0.3078,-0.3032,-0.2972,-0.2927,-0.2701,-0.2651,-0.2856,-0.2857,-0.28,-0.2797,-0.2794,-0.2791,-0.2789,0,-0.2282,-0.2318,-0.2501,-0.254,-0.2623,-0.2715,-0.2755,-0.2897,-0.2921,-0.3028,-0.3018,-0.3043,-0.2997,-0.2936,-0.2851,-0.2764,-0.2875,-0.2531,-0.2489,-0.2845,-0.2828,-0.2834,-0.2839,-0.2219,-0.2213,-0.2207,-0.2203,0,-0.2129,-0.2203,-0.2281,-0.239,-0.2462,-0.2537,-0.2634,-0.2656,-0.2789,-0.2819,-0.2843,-0.2822,-0.2777,-0.2583,-0.2507,-0.2434,-0.2529,-0.2417,-0.2826,-0.2327,-0.2295,-0.2281,-0.2304,-0.2154,-0.2159,-0.2163,-0.2165,-0.2167,-0.1986,-0.2009,-0.2102,-0.2198,-0.2282,-0.2328,-0.2321,-0.2419,-0.2438,-0.2454,-0.2573,-0.2476,-0.2471,-0.2205,-0.2101,-0.203,-0.2199,-0.2118,-0.2135,-0.2158,-0.2102,-0.2067,-0.1873,-0.1876,-0.1878,-0.1881,-0.1883,0,-0.1786,-0.183,-0.1888,-0.1991,-0.2005,-0.2127,-0.2186,-0.2136,-0.2099,-0.2162,-0.2145,-0.1916,-0.1796,-0.1805,-0.16,-0.1574,-0.1559,-0.1531,-0.1511,-0.1558,-0.1601,-0.1518,-0.1133,-0.1131,-0.1129,-0.1127,0,0,-0.1678,-0.1646,-0.1696,-0.1662,-0.1736,-0.1678,-0.1673,-0.1647,-0.1653,-0.1575,-0.1537,-0.1675,-0.1723,-0.1423,-0.1359,-0.1211,-0.1371,-0.1149,-0.1744,-0.1764,-0.1804,-0.1926,-0.1849,0,0,0,0,0]},{"header":{"parameterUnit":"m.s-1","parameterCategory":2,"la1":30.2991,"la2":30.254,"lo1":-89.0895,"lo2":-89.0444,"dy":0.0017,"dx":0.0017,"nx":28,"ny":28,"refTime":"2025-04-30T09:00:00:Z","depth":"2","parameterNumber":3,"parameterNumberName":"V-component_of_CURRENTS"},"data":[0,0,0,0,0,0,0,0,0,0,0,0,0,0,0,0,0,0,0,0,0,0,0,0,0,0,0,0,0,0,0,0,0,0,0,0,0,0,0,0,0,0,0,0,0,0,0,0,0,0,0,0,0,0,0,0,0,0,-0.0251,-0.025,0,-0.0156,-0.0155,-0.0154,-0.0078,-0.0078,-0.0077,-0.0076,0.0066,0.0069,0.0073,0,0,0,0,0,0,0,0,0,0,0,0,0,-0.0275,-0.0275,-0.0251,-0.025,-0.0249,-0.0157,-0.0155,-0.0154,-0.0078,-0.0077,-0.0077,-0.0076,0.0065,0.0069,0.0073,0,0,0,0,0,0,0,0,0,0,0,0,0,-0.0229,-0.0275,-0.0251,-0.0202,-0.0197,-0.0157,-0.0155,-0.0153,-0.0078,-0.0077,-0.0077,-0.0076,0.0064,0.0069,0.0073,0.0087,0,0,0.0088,0.0091,0,0,0,0,0,0,0,0,-0.0232,-0.0228,-0.021,-0.0205,-0.0199,-0.013,-0.0111,-0.0071,-0.0079,-0.0121,-0.0076,-0.0075,0.0003,0.0013,0.0031,0.0094,0.01,0.0089,0.0092,0.0094,0.0095,0,0,0,0,0,0,0,-0.0235,-0.0231,-0.0211,-0.0209,-0.0203,-0.0153,-0.0147,-0.0103,-0.0062,-0.0117,-0.0112,-0.0105,0.0007,0.0026,0.0035,0.0102,0.0089,0.0093,0.0096,0.0098,0.0218,0.0218,0,0,0,0,0,0,-0.0257,-0.0235,-0.0214,-0.0208,-0.0216,-0.0154,-0.0146,-0.0151,-0.0063,-0.005,-0.0106,-0.0102,0.0018,0.0029,0.0041,0.008,0.0094,0.0099,0.0101,0.0218,0.0218,0.0218,0,0,0,0,0,0,-0.0258,-0.0257,-0.0218,-0.022,-0.0212,-0.0156,-0.0161,-0.015,-0.0127,-0.0056,-0.0041,-0.0095,0.0019,0.0034,0.0083,0.0085,0.0101,0.0105,0.0218,0.0218,0.0218,0.0147,0,0,0,0,0,0,-0.026,-0.0258,-0.027,-0.0222,-0.0213,-0.0205,-0.0162,-0.0149,-0.0126,-0.012,-0.0042,-0.0028,0.002,0.0075,0.0088,0.0093,0.0109,0.0217,0.0218,0.0218,0.0149,0.0145,0.0142,0,0,0,0,0,-0.0261,-0.0289,-0.0272,-0.0269,-0.0232,-0.0206,-0.0196,-0.015,-0.0127,-0.0125,-0.0065,-0.003,0.0087,0.0079,0.0094,0.01,0.0217,0.0218,0.0218,0.0151,0.0146,0.0142,0,0,0,0,0,0,-0.0305,-0.0283,-0.0263,-0.0282,-0.0249,-0.0194,-0.0192,-0.0157,-0.0109,-0.0102,-0.0028,-0.001,0.0035,0.0076,0.0065,0.0137,0.0158,0.0162,0.0102,0.0098,0.0095,0.0074,0.0113,0,0,0,0,0,-0.0323,-0.0337,-0.0298,-0.0311,-0.0301,-0.0246,-0.0229,-0.0199,-0.0151,-0.0129,-0.007,-0.0008,0.0047,0.0078,0.0129,0.0165,0.0213,0.018,0.0176,0.0172,0.0166,0.024,0.0243,0.022,0.022,0.022,0,0,-0.0343,-0.0332,-0.034,-0.0321,-0.0292,-0.0288,-0.0234,-0.0219,-0.0203,-0.0121,-0.0082,-0.0022,0.0053,0.0097,0.0121,0.0133,0.0204,0.0173,0.0169,0.0165,0.0241,0.0243,0.0245,0.0221,0.0221,0.022,0,0,-0.0397,-0.0382,-0.0413,-0.0391,-0.0362,-0.0325,-0.0325,-0.0271,-0.0234,-0.0195,-0.0125,-0.0063,0.001,0.0075,0.0115,0.0121,0.0179,0.0134,0.0101,0.0173,0.0175,0.0178,0.024,0.0248,0.0134,0.0134,0.0134,0,-0.0421,-0.045,-0.0414,-0.0431,-0.0417,-0.0348,-0.0362,-0.0318,-0.025,-0.0213,-0.0197,-0.006,0.0001,0.0079,0.0081,0.0112,0.0155,0.0109,0.0167,0.017,0.0174,0.0237,0.0248,0.013,0.0131,0.0131,0.0131,0,-0.0493,-0.0508,-0.0522,-0.0518,-0.0497,-0.0499,-0.0436,-0.0399,-0.0347,-0.0291,-0.0209,-0.0119,-0.0034,-0.0004,0.0038,0.0102,0.0124,0.015,0.0173,0.0172,0.0239,0.0251,0.0126,0.0127,0.0128,0.0129,0,0,-0.0562,-0.0573,-0.0575,-0.0582,-0.0542,-0.0531,-0.0497,-0.0438,-0.0402,-0.0327,-0.0272,-0.0169,-0.0109,-0.0059,0.0015,0.0076,0.0142,0.0112,0.0118,0.0164,0.0293,0.0323,0.034,0.0173,0.0175,0.0177,0.0327,0,-0.0623,-0.0686,-0.0658,-0.0683,-0.0704,-0.062,-0.0589,-0.052,-0.0446,-0.0375,-0.026,-0.0188,-0.0131,-0.0089,-0.0018,0.0102,0.017,0.0098,0.0296,0.0301,0.0321,0.0354,0.0308,0.044,0.034,0.0342,0.0343,0,-0.0701,-0.0728,-0.0785,-0.0761,-0.0757,-0.0753,-0.0675,-0.0635,-0.051,-0.0449,-0.0351,-0.0258,-0.0142,-0.0104,0.0097,0.0045,0.0158,0.0248,0.0256,0.0316,0.0355,0.0428,0.0467,0.0364,0.0363,0.0361,0.036,0,-0.078,-0.0805,-0.0855,-0.0852,-0.0821,-0.0808,-0.0769,-0.0664,-0.0614,-0.0494,-0.045,-0.0296,-0.0215,-0.0064,0.0126,0.0112,0.034,0.0355,0.0493,0.0497,0.0514,0.0516,0.0497,0.0497,0.0497,0.0496,0.0496,0,-0.0862,-0.0892,-0.0901,-0.0926,-0.095,-0.0889,-0.0867,-0.0801,-0.0697,-0.0639,-0.0499,-0.0421,-0.0204,-0.0043,0.0117,0.0345,0.0346,0.0496,0.0543,0.0489,0.0486,0.0462,0.0456,0.0502,0.0501,0.0499,0.0498,0,-0.095,-0.0959,-0.1012,-0.1004,-0.1,-0.1017,-0.0949,-0.0917,-0.0815,-0.0739,-0.0704,-0.0503,-0.029,-0.0065,0.0202,0.0341,0.055,0.0633,0.0549,0.0583,0.0658,0.0646,0.0799,0.0802,0.0804,0.0806,0.0807,0,-0.1003,-0.1049,-0.1086,-0.1115,-0.1119,-0.1119,-0.1102,-0.0998,-0.0952,-0.0781,-0.0748,-0.0529,-0.0349,0.0048,0.0321,0.062,0.0623,0.0751,0.0725,0.0661,0.0692,0.0677,0.0663,0.0724,0.0724,0.0725,0.0725,0,-0.1086,-0.1106,-0.1149,-0.1223,-0.124,-0.1237,-0.1203,-0.1183,-0.104,-0.0948,-0.078,-0.0625,-0.0244,0.0083,0.046,0.0624,0.0695,0.0772,0.0754,0.0644,0.06,0.0626,0.0613,0.073,0.0729,0.0729,0.0729,0.0729,-0.1134,-0.1194,-0.125,-0.1317,-0.1341,-0.1337,-0.132,-0.1244,-0.1155,-0.0974,-0.082,-0.0533,-0.0245,0.0307,0.0551,0.0785,0.0782,0.0845,0.084,0.0834,0.0789,0.075,0.09,0.09,0.0901,0.0901,0.0901,0,-0.1174,-0.1243,-0.1323,-0.1388,-0.1426,-0.1409,-0.1364,-0.13,-0.1188,-0.0975,-0.0769,-0.0402,-0.0017,0.0295,0.0666,0.0875,0.0845,0.0905,0.0821,0.0815,0.081,0.076,0.0865,0.0865,0.0866,0.0867,0,0,-0.1198,-0.1286,-0.134,-0.1434,-0.1475,-0.1477,-0.1448,-0.1325,-0.1154,-0.0927,-0.0681,-0.0367,0.0016,0.027,0.0514,0.0707,0.0703,0.0719,0.0725,0.0588,0.0581,0.0752,0.0666,0,0,0,0,0]}],[{"header":{"parameterUnit":"m.s-1","parameterCategory":2,"la1":30.2991,"la2":30.254,"lo1":-89.0895,"lo2":-89.0444,"dy":0.0017,"dx":0.0017,"nx":28,"ny":28,"refTime":"2025-04-30T09:00:00:Z","depth":"4","parameterNumber":2,"parameterNumberName":"U-component_of_CURRENTS"},"data":[0,0,0,0,0,0,0,0,0,0,0,0,0,0,0,0,0,0,0,0,0,0,0,0,0,0,0,0,0,0,0,0,0,0,0,0,0,0,0,0,0,0,0,0,0,0,0,0,0,0,0,0,0,0,0,0,0,0,-0.1726,-0.1727,0,-0.1797,-0.1797,-0.1798,-0.183,-0.183,-0.183,-0.183,-0.1897,-0.1899,-0.19,0,0,0,0,0,0,0,0,0,0,0,0,0,-0.1658,-0.1659,-0.1726,-0.1727,-0.1728,-0.1796,-0.1797,-0.1798,-0.183,-0.183,-0.183,-0.183,-0.1896,-0.1898,-0.19,0,0,0,0,0,0,0,0,0,0,0,0,0,-0.1702,-0.1659,-0.1725,-0.1753,-0.1757,-0.1796,-0.1797,-0.1798,-0.183,-0.183,-0.183,-0.183,-0.1896,-0.1898,-0.1901,-0.1914,0,0,-0.1908,-0.1909,0,0,0,0,0,0,0,0,-0.17,-0.1705,-0.1748,-0.1751,-0.1755,-0.1806,-0.1798,-0.1837,-0.183,-0.18,-0.183,-0.183,-0.1867,-0.1872,-0.1883,-0.1917,-0.192,-0.1909,-0.191,-0.1911,-0.1912,0,0,0,0,0,0,0,-0.1697,-0.1702,-0.1752,-0.1749,-0.1754,-0.1776,-0.1782,-0.1806,-0.1831,-0.1803,-0.1806,-0.1817,-0.1869,-0.188,-0.1884,-0.192,-0.1909,-0.1911,-0.1912,-0.1913,-0.2042,-0.2044,0,0,0,0,0,0,-0.1689,-0.1699,-0.175,-0.1754,-0.1729,-0.1777,-0.1784,-0.1788,-0.1831,-0.1838,-0.1816,-0.1818,-0.1876,-0.1881,-0.1887,-0.1993,-0.1911,-0.1914,-0.1915,-0.204,-0.2042,-0.2045,0,0,0,0,0,0,-0.1688,-0.1693,-0.1747,-0.173,-0.1739,-0.1778,-0.1783,-0.179,-0.1828,-0.1841,-0.1848,-0.1851,-0.1876,-0.1883,-0.194,-0.1992,-0.1915,-0.1917,-0.2038,-0.2041,-0.2044,-0.2148,0,0,0,0,0,0,-0.1685,-0.1692,-0.1703,-0.1729,-0.1739,-0.1788,-0.1783,-0.1791,-0.1833,-0.1836,-0.1873,-0.1877,-0.1877,-0.1937,-0.1943,-0.1994,-0.1919,-0.2036,-0.2039,-0.2043,-0.2143,-0.2155,-0.2165,0,0,0,0,0,-0.1682,-0.1692,-0.1703,-0.171,-0.175,-0.179,-0.1798,-0.1825,-0.1835,-0.1858,-0.189,-0.1878,-0.1963,-0.1941,-0.1947,-0.2001,-0.2034,-0.2038,-0.2042,-0.2138,-0.2152,-0.2164,0,0,0,0,0,0,-0.1667,-0.1697,-0.1709,-0.1728,-0.1766,-0.1796,-0.1821,-0.1843,-0.1886,-0.1895,-0.1906,-0.1914,-0.198,-0.1974,-0.1949,-0.2046,-0.1995,-0.2001,-0.2065,-0.2079,-0.209,-0.2086,-0.1921,0,0,0,0,0,-0.1669,-0.1684,-0.1722,-0.1739,-0.176,-0.1798,-0.1822,-0.1844,-0.1881,-0.1901,-0.1934,-0.1965,-0.1998,-0.2026,-0.2048,-0.2107,-0.2082,-0.2143,-0.2154,-0.2164,-0.2165,-0.2183,-0.2196,-0.2059,-0.2059,-0.2058,0,0,-0.1667,-0.1687,-0.1696,-0.1738,-0.1768,-0.181,-0.1813,-0.1858,-0.1905,-0.1901,-0.1982,-0.2005,-0.2021,-0.2087,-0.2116,-0.2094,-0.2189,-0.2169,-0.2178,-0.2173,-0.2189,-0.2202,-0.2214,-0.2061,-0.2061,-0.206,0,0,-0.1666,-0.1692,-0.1707,-0.1746,-0.1799,-0.1831,-0.1853,-0.191,-0.1949,-0.2022,-0.2033,-0.2096,-0.2146,-0.2181,-0.2198,-0.2284,-0.2242,-0.2288,-0.2353,-0.2372,-0.2383,-0.2393,-0.237,-0.2377,-0.23,-0.2301,-0.2301,0,-0.1667,-0.1691,-0.172,-0.1753,-0.1798,-0.1846,-0.1892,-0.1938,-0.2013,-0.2062,-0.2058,-0.2171,-0.2192,-0.2278,-0.231,-0.2312,-0.2292,-0.2304,-0.2387,-0.2396,-0.2404,-0.2378,-0.2384,-0.2306,-0.2305,-0.2305,-0.2304,0,-0.1676,-0.1713,-0.1731,-0.1791,-0.1844,-0.1892,-0.1964,-0.2031,-0.2089,-0.2142,-0.2248,-0.2284,-0.2351,-0.2374,-0.237,-0.2452,-0.2408,-0.2394,-0.2352,-0.2424,-0.2392,-0.2396,-0.2314,-0.2312,-0.231,-0.2309,0,0,-0.163,-0.172,-0.1729,-0.1781,-0.1875,-0.1923,-0.2015,-0.2119,-0.2194,-0.2273,-0.2364,-0.2448,-0.2477,-0.2497,-0.2513,-0.2539,-0.2585,-0.2496,-0.2494,-0.2471,-0.2593,-0.2409,-0.2395,-0.2583,-0.2585,-0.2586,-0.2545,0,-0.1636,-0.1699,-0.1755,-0.1851,-0.1898,-0.1995,-0.2083,-0.2188,-0.2272,-0.237,-0.2437,-0.2519,-0.252,-0.2559,-0.2593,-0.2584,-0.2602,-0.2595,-0.2528,-0.2525,-0.2352,-0.2397,-0.2591,-0.2547,-0.2548,-0.2549,-0.255,0,-0.1621,-0.1674,-0.1755,-0.1899,-0.1934,-0.2013,-0.2177,-0.2263,-0.2402,-0.2465,-0.2561,-0.2598,-0.2676,-0.2647,-0.2682,-0.2673,-0.2644,-0.2626,-0.2623,-0.2415,-0.2349,-0.2463,-0.2557,-0.2556,-0.2556,-0.2555,-0.2555,0,-0.1561,-0.1682,-0.1755,-0.1801,-0.1959,-0.2044,-0.2147,-0.2299,-0.2384,-0.2524,-0.2577,-0.2675,-0.2711,-0.2715,-0.2684,-0.2688,-0.2673,-0.2673,-0.248,-0.2466,-0.2598,-0.2588,-0.2686,-0.2686,-0.2687,-0.2687,-0.2687,0,-0.1531,-0.1595,-0.1743,-0.1783,-0.1909,-0.2033,-0.218,-0.2287,-0.243,-0.251,-0.2621,-0.2655,-0.2727,-0.2725,-0.2696,-0.258,-0.2685,-0.2484,-0.2447,-0.2641,-0.2637,-0.26,-0.2591,-0.2685,-0.2685,-0.2686,-0.2686,0,-0.1444,-0.1534,-0.1631,-0.1809,-0.1878,-0.197,-0.2184,-0.2272,-0.2414,-0.2506,-0.2544,-0.2651,-0.2633,-0.2656,-0.2642,-0.2565,-0.2494,-0.2426,-0.2605,-0.2579,-0.2272,-0.2269,-0.2215,-0.2208,-0.2202,-0.2198,-0.2194,0,-0.14,-0.1434,-0.1624,-0.169,-0.1781,-0.1941,-0.2043,-0.2237,-0.231,-0.2465,-0.2472,-0.2521,-0.2558,-0.2376,-0.2435,-0.2355,-0.2329,-0.2285,-0.2309,-0.2256,-0.2227,-0.2233,-0.2237,-0.2184,-0.2183,-0.2181,-0.218,0,-0.131,-0.1385,-0.1459,-0.159,-0.1712,-0.1848,-0.1997,-0.203,-0.2216,-0.2361,-0.2319,-0.2298,-0.2267,-0.224,-0.2184,-0.2138,-0.2316,-0.2225,-0.2237,-0.226,-0.2219,-0.2196,-0.2208,-0.216,-0.2163,-0.2165,-0.2166,0,-0.1236,-0.1261,-0.1357,-0.1468,-0.1605,-0.1688,-0.1808,-0.1876,-0.1964,-0.2124,-0.2096,-0.2138,-0.2225,-0.2124,-0.2076,-0.2009,-0.1992,-0.194,-0.1968,-0.199,-0.1938,-0.1855,-0.1645,0,0,0,0,0,-0.1148,-0.1153,-0.1233,-0.1337,-0.1467,-0.1549,-0.1736,-0.1851,-0.2015,-0.1922,-0.2002,-0.1954,-0.1888,-0.1921,-0.1802,-0.1991,-0.201,-0.1849,-0.1969,-0.205,-0.2073,-0.2033,0,0,0,0,0,0,-0.1086,-0.113,-0.1164,-0.1191,-0.1236,-0.1367,-0.1475,-0.1605,-0.1572,-0.1729,-0.1693,-0.1813,-0.1771,-0.1887,-0.1742,-0.1754,-0.1788,-0.1894,-0.1888,-0.2037,-0.2058,-0.2076,-0.2043,0,0,0,0,0]},{"header":{"parameterUnit":"m.s-1","parameterCategory":2,"la1":30.2991,"la2":30.254,"lo1":-89.0895,"lo2":-89.0444,"dy":0.0017,"dx":0.0017,"nx":28,"ny":28,"refTime":"2025-04-30T09:00:00:Z","depth":"4","parameterNumber":3,"parameterNumberName":"V-component_of_CURRENTS"},"data":[0,0,0,0,0,0,0,0,0,0,0,0,0,0,0,0,0,0,0,0,0,0,0,0,0,0,0,0,0,0,0,0,0,0,0,0,0,0,0,0,0,0,0,0,0,0,0,0,0,0,0,0,0,0,0,0,0,0,-0.0233,-0.0232,0,-0.0189,-0.0189,-0.0188,-0.0153,-0.0153,-0.0153,-0.0153,-0.0066,-0.0064,-0.0062,0,0,0,0,0,0,0,0,0,0,0,0,0,-0.0236,-0.0236,-0.0233,-0.0232,-0.0232,-0.0189,-0.0189,-0.0188,-0.0153,-0.0153,-0.0153,-0.0152,-0.0067,-0.0064,-0.0062,0,0,0,0,0,0,0,0,0,0,0,0,0,-0.0217,-0.0236,-0.0233,-0.021,-0.0208,-0.019,-0.0189,-0.0188,-0.0153,-0.0153,-0.0153,-0.0152,-0.0067,-0.0064,-0.0061,-0.0049,0,0,-0.0052,-0.005,0,0,0,0,0,0,0,0,-0.0218,-0.0216,-0.0214,-0.0212,-0.0209,-0.0177,-0.0158,-0.014,-0.0153,-0.0173,-0.0153,-0.0152,-0.01,-0.0095,-0.0086,-0.0045,-0.0041,-0.0051,-0.005,-0.0048,-0.0047,0,0,0,0,0,0,0,-0.0219,-0.0218,-0.0214,-0.0214,-0.0211,-0.0186,-0.0183,-0.0154,-0.0137,-0.0171,-0.0169,-0.0166,-0.0098,-0.0089,-0.0083,-0.004,-0.0052,-0.0049,-0.0047,-0.0046,0.003,0.003,0,0,0,0,0,0,-0.023,-0.0219,-0.0216,-0.0213,-0.0214,-0.0186,-0.0183,-0.0187,-0.0138,-0.0131,-0.0166,-0.0165,-0.0094,-0.0087,-0.008,-0.0049,-0.0048,-0.0045,-0.0043,0.0029,0.003,0.003,0,0,0,0,0,0,-0.0231,-0.0231,-0.0217,-0.0216,-0.0212,-0.0187,-0.0191,-0.0186,-0.0178,-0.0136,-0.0127,-0.0164,-0.0094,-0.0085,-0.0055,-0.0045,-0.0044,-0.0041,0.0029,0.003,0.003,0.0006,0,0,0,0,0,0,-0.0231,-0.0231,-0.0241,-0.0217,-0.0213,-0.0214,-0.0192,-0.0186,-0.0178,-0.0175,-0.0131,-0.0123,-0.0093,-0.006,-0.0052,-0.0041,-0.0039,0.0029,0.0029,0.003,0.0007,0.0005,0.0004,0,0,0,0,0,-0.0232,-0.0249,-0.0242,-0.0242,-0.0227,-0.0215,-0.0211,-0.019,-0.0178,-0.018,-0.0145,-0.0124,-0.0053,-0.0057,-0.0048,-0.0036,0.0029,0.0029,0.003,0.0007,0.0006,0.0004,0,0,0,0,0,0,-0.0256,-0.0246,-0.0238,-0.0252,-0.0238,-0.021,-0.0213,-0.0195,-0.017,-0.0167,-0.0122,-0.0112,-0.0082,-0.0059,-0.0065,-0.0015,-0.0008,-0.0006,-0.0028,-0.003,-0.0031,-0.0045,-0.0036,0,0,0,0,0,-0.0267,-0.0277,-0.0259,-0.027,-0.0266,-0.0239,-0.0233,-0.0219,-0.0193,-0.0182,-0.0148,-0.0111,-0.0074,-0.0053,-0.0023,0.0004,0.0038,0.0017,0.0016,0.0015,0.0009,0.0079,0.0084,0.0031,0.0031,0.0031,0,0,-0.0281,-0.0276,-0.0282,-0.0275,-0.0263,-0.0266,-0.0235,-0.0232,-0.0226,-0.0176,-0.0157,-0.0116,-0.0069,-0.0037,-0.0021,-0.0015,0.0046,0.0015,0.0014,0.0009,0.008,0.0086,0.0091,0.0031,0.0031,0.0031,0,0,-0.0313,-0.0308,-0.0328,-0.032,-0.0308,-0.029,-0.0292,-0.0265,-0.0246,-0.0226,-0.018,-0.0131,-0.0094,-0.0041,-0.0013,-0.0003,0.0035,-0.0,-0.0011,0.0057,0.0062,0.0067,0.011,0.0119,0.0003,0.0003,0.0003,0,-0.0331,-0.0351,-0.033,-0.0344,-0.0342,-0.0305,-0.032,-0.0295,-0.026,-0.0234,-0.023,-0.0134,-0.0092,-0.0024,-0.0022,-0.0003,0.0027,-0.0008,0.0056,0.0062,0.0068,0.011,0.0121,0.0002,0.0002,0.0002,0.0003,0,-0.0374,-0.0389,-0.0399,-0.0404,-0.0397,-0.0404,-0.037,-0.035,-0.0323,-0.0286,-0.0224,-0.0159,-0.0098,-0.0073,-0.0047,0.0019,0.0024,0.0045,0.006,0.0072,0.0116,0.0127,0.0001,0.0001,0.0001,0.0002,0,0,-0.0412,-0.0429,-0.0432,-0.0445,-0.0429,-0.0429,-0.0411,-0.0375,-0.0352,-0.0301,-0.026,-0.0178,-0.013,-0.0096,-0.0039,0.0022,0.009,0.004,0.0044,0.0082,0.022,0.0182,0.0191,0.0121,0.0123,0.0124,0.0232,0,-0.0452,-0.0499,-0.0486,-0.0517,-0.0537,-0.0491,-0.0475,-0.0432,-0.0385,-0.0334,-0.0239,-0.0186,-0.0142,-0.0109,-0.0038,0.0055,0.0118,0.0057,0.0203,0.0207,0.0173,0.0203,0.013,0.0241,0.0243,0.0245,0.0247,0,-0.0498,-0.0522,-0.0572,-0.0573,-0.0574,-0.0583,-0.0541,-0.0519,-0.0427,-0.0384,-0.0301,-0.0232,-0.0127,-0.01,0.0074,0.0029,0.0117,0.0189,0.0196,0.0175,0.019,0.023,0.0267,0.0266,0.0264,0.0263,0.0262,0,-0.0545,-0.0575,-0.062,-0.0626,-0.0623,-0.0624,-0.0609,-0.0538,-0.0509,-0.0416,-0.0383,-0.0248,-0.0186,-0.0053,0.009,0.0086,0.0269,0.0289,0.0343,0.0341,0.0353,0.0347,0.0415,0.0415,0.0414,0.0414,0.0414,0,-0.0592,-0.0624,-0.0653,-0.0679,-0.0714,-0.0683,-0.0685,-0.0642,-0.057,-0.0531,-0.0418,-0.0358,-0.0173,-0.0047,0.0084,0.0238,0.0273,0.0343,0.0372,0.0338,0.0329,0.0361,0.0353,0.0418,0.0417,0.0416,0.0416,0,-0.064,-0.0661,-0.0717,-0.0737,-0.0748,-0.0774,-0.0758,-0.0743,-0.067,-0.0618,-0.0592,-0.0433,-0.027,-0.009,0.013,0.022,0.0378,0.0427,0.0359,0.0382,0.0405,0.0395,0.05,0.05,0.0499,0.0499,0.0499,0,-0.0669,-0.0708,-0.0774,-0.0816,-0.0836,-0.0863,-0.0872,-0.0809,-0.078,-0.0659,-0.0632,-0.0473,-0.0354,-0.0071,0.011,0.0354,0.0388,0.0459,0.0449,0.0399,0.0418,0.0408,0.0398,0.0498,0.0498,0.0498,0.0498,0,-0.0717,-0.0751,-0.0796,-0.089,-0.0935,-0.0961,-0.0962,-0.0943,-0.0849,-0.0795,-0.0644,-0.0481,-0.0302,-0.0078,0.0104,0.0282,0.0406,0.0457,0.0459,0.0451,0.0399,0.0415,0.0406,0.0497,0.0497,0.0498,0.0498,0,-0.0746,-0.0798,-0.087,-0.0944,-0.1013,-0.1035,-0.1024,-0.0962,-0.0913,-0.0757,-0.0715,-0.0498,-0.0362,-0.0116,0.0056,0.0218,0.0262,0.031,0.0321,0.0324,0.0234,0.0139,0.0188,0,0,0,0,0,-0.0763,-0.0826,-0.0911,-0.0991,-0.1059,-0.1089,-0.107,-0.1032,-0.0945,-0.0846,-0.0766,-0.0588,-0.0308,-0.0181,-0.0024,0.003,0.0266,0.0215,0.0319,0.0492,0.0493,0.0413,0,0,0,0,0,0,-0.0779,-0.0865,-0.0916,-0.1014,-0.1071,-0.1124,-0.1113,-0.105,-0.0965,-0.086,-0.0704,-0.0585,-0.0314,-0.0411,-0.0037,0.0014,0.0095,0.0359,0.0361,0.0492,0.0493,0.0493,0.0412,0,0,0,0,0]}]]